Regional Weather Roundup
Issued by NWS Cleveland, OH

Home | Current Version | Previous Version | Text Only | Print | Product List | Glossary Off
Versions: 1 2 3 4 5 6 7 8 9 10 11 12 13 14 15 16 17 18 19 20 21 22 23 24 25 26 27 28 29 30 31 32 33 34 35 36 37 38 39 40 41 42 43 44 45 46 47 48 49 50

000
ASUS41 KCLE 011802
RWRCLE
OHIO REGIONAL WEATHER ROUNDUP
NATIONAL WEATHER SERVICE CLEVELAND, OH
200 PM EDT WED APR 01 2015

NOTE: "FAIR" INDICATES FEW OR NO CLOUDS BELOW 12,000 FEET WITH NO
SIGNIFICANT WEATHER AND/OR OBSTRUCTIONS TO VISIBILITY.

OHZ001>008-015>018-024>027-034-035-043-044-011900-
   NORTHWEST OHIO

CITY           SKY/WX    TMP DP  RH WIND       PRES   REMARKS
DEFIANCE       SUNNY     62  35  36 W6G17     30.10F
FINDLAY        SUNNY     61  36  39 W9        30.10F
TOLEDO EXPRESS SUNNY     58  37  45 SW8       30.10F
TOLEDO EXEC    SUNNY     59  38  45 W10       30.12F
LIMA           SUNNY     61  37  41 SW6G17    30.11F
$$

OHZ009>014-019>023-028>033-038-089-011900-
   NORTHEAST OHIO

CITY           SKY/WX    TMP DP  RH WIND       PRES   REMARKS
CLE-HOPKINS    MOSUNNY   53  33  46 W7        30.17F
CLE-LAKEFRONT  MOSUNNY   44  33  65 NE6       30.15S
CUY CO. ARPT   PTSUNNY   52  32  46 NW12      30.15F
LORAIN-ELYRIA  PTSUNNY   53  36  52 W10       30.14S
ASHTABULA      PTSUNNY   46  33  60 VRB7      30.16F
AKRON-CANTON   PTSUNNY   53  30  41 VRB7G17   30.15S
WOOSTER        CLOUDY    55  37  50 W12G18    30.14F
MANSFIELD      MOSUNNY   56  35  45 W13       30.14S
YOUNGSTOWN     MOSUNNY   49  30  48 VRB6      30.15F
$$

OHZ042-051>053-060>062-070>072-077>081-011900-
  SOUTHWEST OHIO

CITY           SKY/WX    TMP DP  RH WIND       PRES   REMARKS
CINC-COVINGTON SUNNY     62  32  32 VRB3      30.13F
CINC-LUNKEN    SUNNY     62  34  35 W5        30.14F
HAMILTON       SUNNY     64  34  32 VRB3      30.14F
DAYTON         SUNNY     62  35  36 VRB7      30.14F
WRIGHT-PAT AFB SUNNY     61  33  35 VRB3      30.13F
DAYTON GENERAL SUNNY     60  34  37 VRB3      30.13F
WILMINGTON     SUNNY     60  33  36 S7        30.15F
$$

OHZ036-037-039>041-045>050-054>059-063>069-073>076-082>088-011900-
  CENTRAL AND SOUTHEAST OHIO

CITY           SKY/WX    TMP DP  RH WIND       PRES   REMARKS
COLUMBUS       SUNNY     56  35  45 S7        30.16F
OSU AIRPORT    SUNNY     58  34  40 VRB7      30.14F
BOLTON FIELD   SUNNY     59  37  44 W6G18     30.15F
RICKENBACK AFB NOT AVBL
NEWARK         MOSUNNY   56  34  43 S7        30.15F
MARION         SUNNY     57  34  41 VRB3G17   30.13F
LANCASTER      SUNNY     58  34  40 SW6       30.16F
ZANESVILLE     MOSUNNY   56  30  37 W9        30.16S
NEW PHILLY     MOSUNNY   56  29  35 W12       30.16F
$$



USA.gov is the U.S. government's official web portal to all federal, state and local government web resources and services.